Regional Weather Roundup
Issued by NWS

Home | Current Version | Previous Version | Text Only | Print | Product List | Glossary Off
Versions: 1 2 3 4 5 6 7 8 9 10 11 12 13 14 15 16 17 18 19 20 21 22 23 24 25 26 27 28 29 30 31 32 33 34 35 36 37 38 39 40 41 42 43 44 45 46 47 48 49 50

000
ASUS43 KLOT 240406
RWRIL

ILLINOIS REGIONAL WEATHER ROUNDUP
NATIONAL WEATHER SERVICE CHICAGO/ROMEOVILLE IL
1100 PM CDT TUE SEP 23 2014

NOTE: "FAIR" INDICATES FEW OR NO CLOUDS BELOW 12,000 FEET WITH NO
SIGNIFICANT WEATHER AND/OR OBSTRUCTIONS TO VISIBILITY.

* THESE STATIONS ARE NOT UNDER NWS QUALITY CONTROL. THEY ALSO MAY NOT
  REPORT WEATHER SUCH AS PRECIPITATION OR FOG.

ILZ001-002-007-009-015-016-024-240500-
NORTHWEST ILLINOIS

CITY           SKY/WX    TMP DP  RH WIND       PRES   REMARKS
MOLINE         MOCLDY    56  50  80 CALM      30.26R
STERLING*      MOCLDY    55  48  76 SE6       30.28R
SAVANNA*       CLOUDY    58  49  73 CALM      30.26S
$$

ILZ003-004-008-010-011-017-018-240500-
NORTH CENTRAL ILLINOIS

CITY           SKY/WX    TMP DP  RH WIND       PRES   REMARKS
ROCKFORD       PTCLDY    57  48  72 CALM      30.32R
DE KALB*       PTCLDY    54  48  78 E6        30.31S
PERU*          PTCLDY    61  49  63 SE8       30.30R
$$

ILZ005-006-012>014-019>023-240500-
NORTHEAST ILLINOIS

CITY           SKY/WX    TMP DP  RH WIND       PRES   REMARKS
CHICAGO-OHARE  PTCLDY    59  50  72 SE5       30.30S
CHICAGO-MIDWAY PTCLDY    62  53  72 E7        30.31R
AURORA         PTCLDY    53  48  83 CALM      30.31R
LANSING*       CLEAR     55  49  80 CALM      30.31S
JOLIET*        PTCLDY    57  49  74 E3        30.31R
WAUKEGAN       CLEAR     51  49  92 CALM      30.31R
DUPAGE AIRPORT PTCLDY    58  50  75 SE3       30.30R
KANKAKEE*      PTCLDY    55  50  86 NE3       30.31S
WHEELING       PTCLDY    59  51  75 SE3       30.32R
ROMEOVILLE*    PTCLDY    58  49  72 SE8       30.31R
NORTHERLY ISL    N/A     61  57  87 SE3         N/A
$$

LMZ740>746-240500-
SOUTHERN LAKE MICHIGAN

STATION/POSITION SKY/WX   TEMP    WIND        PRES    VSBY  WAVE
                          AIR SEA DIR/SP/G                  HT/PER
                          (F)     (DEG/KT/KT) (MB)    (MI)  (FT/S)
SOUTHERN BUOY              62 62  120/  8/  8 1026.8R         0
WAUKEGAN HARBOR            59     200/  4/  5   N/A
BURNHAM HARBOR             61     140/  4/  6   N/A
CALUMET HARBOR             63     110/  5/  6 1025.1R
MICHIGAN CITY 6N           62 64  110/ 10/ 12   N/A           1/ 2
ST. JOSEPH                 63 65  100/  8/ 12   N/A           1/ 2
$$

ILZ025>027-034>036-040-047-049-050-058-095>099-240500-
WEST-CENTRAL ILLINOIS

CITY           SKY/WX    TMP DP  RH WIND       PRES   REMARKS
QUINCY         CLOUDY    60  51  72 SE5       30.25R
GALESBURG*     MOCLDY   N/A N/A N/A E3        30.26R
MACOMB*        PTCLDY    49  47  95 CALM      30.28R
JACKSONVILLE*  PTCLDY    61  51  69 SE5       30.27S
PITTSFIELD*    MOCLDY    55  52  88 CALM      30.28R
$$

ILZ028>032-037-038-041>044-048-051>054-059>061-240500-
CENTRAL ILLINOIS

CITY           SKY/WX    TMP DP  RH WIND       PRES   REMARKS
PONTIAC        PTCLDY    55  50  82 E5        30.29S
BLOOMINGTON    PTCLDY    57  49  75 SE8       30.30R
DECATUR        PTCLDY    53  48  83 E3        30.29R
PEORIA         MOCLDY    65  46  50 SE7       30.27S
LACON*         MOCLDY    59  47  65 SE7       30.27S
LINCOLN*       PTCLDY    57  49  73 CALM      30.27R
SPRINGFIELD    MOCLDY    57  53  86 CALM      30.28R
TAYLORVILLE    PTCLDY    57  48  72 CALM      30.28R
$$

ILZ033-039-045-046-055>057-062-063-240500-
EAST-CENTRAL ILLINOIS

CITY           SKY/WX    TMP DP  RH WIND       PRES   REMARKS
CHAMPAIGN        N/A    N/A N/A N/A MISG      30.30R
DANVILLE*      PTCLDY    53  49  87 E3        30.28R
MATTOON        CLEAR     58  51  78 S3        30.28R
PARIS*         CLEAR     48  48  99 CALM      30.30S
$$

ILZ079-100>102-240500-
SOUTHWEST ILLINOIS

CITY           SKY/WX    TMP DP  RH WIND       PRES   REMARKS
ALTON          PTCLDY    55  51  86 CALM      30.27R
BELLEVILLE     PTCLDY    54  53  98 CALM      30.26R
CAHOKIA*       PTCLDY    56  52  86 CALM      30.26R
SPARTA*        PTCLDY    55  49  80 CALM      30.27R
$$

ILZ064>066-069>071-074>076-080>082-084>086-088>090-092>094-240500-
SOUTH-CENTRAL ILLINOIS

CITY           SKY/WX    TMP DP  RH WIND       PRES   REMARKS
CARBONDALE     CLEAR     51  48  89 CALM      30.25R
CAIRO*         CLEAR     55  49  82 CALM      30.23S
EFFINGHAM*     HVY RAIN  54  48  81 CALM      30.28R
MARION         CLEAR     52  50  93 CALM      30.26S
MT. VERNON     CLEAR    N/A N/A N/A N3        30.27S
CENTRALIA*     CLEAR     50  47  91 CALM      30.27R
SALEM*         CLEAR     60  52  75 CALM      30.28R
METROPOLIS*    CLEAR     51  49  93 CALM      30.23S
$$

ILZ067-068-072-073-078-083-087-091-240500-
SOUTHEAST ILLINOIS

CITY           SKY/WX    TMP DP  RH WIND       PRES   REMARKS
LAWRENCEVILLE  CLEAR     54  49  83 NE5       30.29R
FLORA*         CLEAR     55  48  75 CALM      30.28R
FAIRFIELD*     CLEAR    N/A N/A N/A NE3       30.27R
HARRISBURG*    CLEAR     54  48  80 CALM      30.27R
ROBINSON*      CLEAR     51  50  97 CALM      30.29S
CARMI*         CLEAR     51  51  97 NE3       30.26S
$$

ABBREVIATIONS USED IN REMARKS
   TC - TEMPERATURE IN CELSIUS
  WCI - WIND CHILL INDEX
   HX - HEAT INDEX
  VSB - VISIBILITY
$$




USA.gov is the U.S. government's official web portal to all federal, state and local government web resources and services.